Location: Crescent
(42.8242°N, 73.7329°W)
Time: 09:21:34
(UTC+00:00)

Tiros 1 - Pass Details

Date: 25 February 2026
Orbit: 618 x 649 km, 48.4° (Epoch: 7 March)

Event Time Altitude Azimuth Distance (km) Brightness Sun altitude
Exits shadow 09:01:27 12° 151° (SSE) 1,898 9.7 -29.1°
Maximum altitude 09:02:50 13° 132° (SE) 1,809 9.8 -28.9°
Drops below altitude 10° 09:05:01 10° 104° (ESE) 2,015 10.4 -28.5°
Sets 09:08:28 0° 77° (ENE) 2,919 11.8 -27.9°
